QPF
0.00 0.00 0.00 0.00 0.02 0.12 0.04 0.00 0.01 0.00 0.00 0.06 0.04 0.09 0.06 0.25 0.26 0.37 0.16 0.03 0.00 0.00 0.00 0.01 0.01 0.00 0.00 0.03 0.10 0.02 0.00 0.00 0.01 0.01 0.01 0.01 0.00 0.01 0.00 0.00 0.00 0.00 0.01
0.00 0.05 0.02 0.00 0.03 0.08 0.01 0.01 0.00 0.00 0.02 0.03 0.05 0.07 0.13 0.06 0.10 0.27 0.17 0.08 0.02 0.00 0.00 0.00 0.02 0.01 0.01 0.00 0.01 0.00 0.00 0.04 0.02 0.01 0.01 0.02 0.08 0.02 0.01 0.04 0.01 0.05 0.09
0.00 0.01 0.01 0.04 0.03 0.05 0.04 0.01 0.00 0.00 0.00 0.01 0.05 0.03 0.04 0.04 0.02 0.02 0.03 0.01 0.01 0.04 0.04 0.00 0.01 0.03 0.02 0.00 0.00 0.00 0.00 0.09 0.04 0.02 0.00 0.00 0.03 0.08 0.07 0.04 0.02 0.12 0.12
0.00 0.00 0.01 0.03 0.02 0.01 0.00 0.00 0.00 0.00 0.00 0.00 0.00 0.00 0.00 0.00 0.00 0.00 0.00 0.00 0.00 0.00 0.00 0.00 0.00 0.00 0.00 0.00 0.00 0.00 0.00 0.02 0.01 0.02 0.02 0.02 0.03 0.00 0.00 0.00 0.00 0.00 0.01
0.00 0.00 0.00 0.00 0.00 0.00 0.00 0.00 0.00 0.00 0.00 0.00 0.00 0.00 0.00 0.00 0.00 0.00 0.00 0.00 0.00 0.00 0.00 0.00 0.00 0.01 0.00 0.00 0.00 0.00 0.00 0.00 0.00 0.00 0.00 0.00 0.00 0.00 0.00 0.00 0.00 0.00 0.00
0.00 0.00 0.00 0.00 0.00 0.00 0.00 0.00 0.00 0.00 0.00 0.00 0.00 0.00 0.00 0.00 0.00 0.00 0.00 0.00 0.00 0.00 0.00 0.00 0.00 0.00 0.00 0.00 0.00 0.00 0.00 0.00 0.00 0.00 0.00 0.00 0.00 0.00 0.00 0.00 0.00 0.00 0.00
0.00 0.00 0.00 0.00 0.01 0.02 0.01 0.00 0.00 0.00 0.00 0.00 0.00 0.00 0.00 0.00 0.00 0.00 0.00 0.00 0.00 0.00 0.00 0.00 0.00 0.00 0.00 0.00 0.00 0.00 0.00 0.00 0.00 0.00 0.00 0.00 0.00 0.00 0.00 0.00 0.00 0.00 0.00
0.00 0.00 0.00 0.00 0.03 0.04 0.03 0.02 0.00 0.00 0.00 0.00 0.00 0.00 0.00 0.00 0.00 0.00 0.00 0.00 0.00 0.00 0.00 0.00 0.00 0.00 0.00 0.00 0.00 0.00 0.00 0.00 0.00 0.00 0.00 0.00 0.00 0.00 0.00 0.00 0.00 0.00 0.00
0.00 0.01 0.05 0.00 0.01 0.03 0.02 0.00 0.00 0.00 0.00 0.00 0.00 0.00 0.00 0.00 0.00 0.00 0.00 0.00 0.00 0.00 0.00 0.00 0.00 0.00 0.00 0.00 0.00 0.00 0.00 0.00 0.00 0.00 0.00 0.00 0.00 0.00 0.00 0.00 0.00 0.00 0.00
0.00 0.01 0.03 0.07 0.03 0.04 0.02 0.00 0.00 0.03 0.02 0.02 0.01 0.01 0.00 0.00 0.00 0.00 0.00 0.00 0.00 0.00 0.00 0.00 0.00 0.00 0.00 0.00 0.00 0.00 0.00 0.00 0.00 0.00 0.00 0.00 0.00 0.00 0.00 0.00 0.00 0.00 0.00
0.05 0.05 0.06 0.08 0.01 0.03 0.01 0.02 0.02 0.03 0.02 0.02 0.01 0.00 0.00 0.00 0.00 0.00 0.00 0.00 0.00 0.00 0.00 0.00 0.00 0.00 0.00 0.00 0.00 0.00 0.00 0.00 0.00 0.00 0.00 0.00 0.00 0.00 0.00 0.00 0.00 0.00 0.00
0.51 0.23 0.07 0.03 0.03 0.05 0.06 0.05 0.04 0.05 0.01 0.00 0.00 0.00 0.00 0.00 0.00 0.00 0.00 0.00 0.00 0.00 0.00 0.00 0.00 0.00 0.00 0.00 0.00 0.00 0.00 0.00 0.00 0.00 0.00 0.00 0.00 0.00 0.00 0.00 0.00 0.00 0.00
0.51 0.27 0.02 0.03 0.13 0.17 0.13 0.11 0.06 0.03 0.00 0.00 0.00 0.00 0.00 0.00 0.00 0.00 0.00 0.00 0.00 0.00 0.00 0.00 0.00 0.00 0.00 0.00 0.00 0.00 0.00 0.00 0.00 0.00 0.00 0.00 0.00 0.00 0.00 0.00 0.00 0.00 0.00
0.52 0.15 0.06 0.08 0.09 0.15 0.15 0.15 0.07 0.01 0.00 0.00 0.00 0.00 0.00 0.00 0.00 0.00 0.00 0.00 0.00 0.00 0.00 0.00 0.00 0.00 0.00 0.00 0.00 0.00 0.00 0.00 0.00 0.00 0.00 0.00 0.00 0.00 0.00 0.00 0.00 0.00 0.00
0.32 0.15 0.06 0.07 0.10 0.11 0.11 0.07 0.02 0.00 0.00 0.00 0.00 0.00 0.00 0.00 0.00 0.00 0.00 0.00 0.00 0.00 0.00 0.00 0.00 0.00 0.00 0.00 0.00 0.00 0.00 0.00 0.00 0.00 0.00 0.00 0.00 0.00 0.00 0.00 0.00 0.00 0.00
0.20 0.12 0.06 0.07 0.09 0.06 0.02 0.00 0.00 0.00 0.00 0.00 0.00 0.00 0.00 0.00 0.00 0.00 0.00 0.00 0.00 0.00 0.00 0.00 0.00 0.00 0.00 0.00 0.00 0.00 0.00 0.00 0.00 0.00 0.00 0.00 0.00 0.00 0.00 0.00 0.00 0.00 0.00
0.05 0.07 0.08 0.07 0.04 0.01 0.00 0.00 0.00 0.00 0.00 0.00 0.00 0.00 0.00 0.00 0.00 0.00 0.00 0.00 0.00 0.00 0.00 0.00 0.00 0.00 0.00 0.00 0.00 0.00 0.00 0.00 0.00 0.00 0.00 0.00 0.00 0.00 0.00 0.00 0.00 0.00 0.00
0.23 0.04 0.04 0.04 0.01 0.00 0.01 0.00 0.00 0.01 0.00 0.00 0.00 0.00 0.00 0.00 0.00 0.00 0.00 0.00 0.00 0.00 0.00 0.00 0.00 0.00 0.00 0.00 0.00 0.00 0.00 0.00 0.00 0.00 0.00 0.00 0.00 0.00 0.00 0.00 0.00 0.00 0.00
0.72 0.19 0.06 0.01 0.00 0.01 0.00 0.00 0.01 0.01 0.01 0.01 0.01 0.00 0.00 0.00 0.00 0.00 0.00 0.00 0.00 0.00 0.00 0.00 0.00 0.00 0.00 0.00 0.00 0.00 0.00 0.00 0.00 0.00 0.00 0.00 0.00 0.00 0.00 0.00 0.00 0.00 0.00
0.25 0.12 0.04 0.02 0.02 0.01 0.01 0.00 0.00 0.00 0.00 0.00 0.00 0.00 0.00 0.00 0.00 0.00 0.00 0.00 0.00 0.00 0.00 0.00 0.00 0.00 0.00 0.00 0.00 0.00 0.00 0.00 0.00 0.00 0.00 0.00 0.00 0.00 0.00 0.00 0.00 0.00 0.00
0.09 0.07 0.06 0.03 0.03 0.02 0.01 0.00 0.00 0.00 0.00 0.00 0.00 0.00 0.00 0.00 0.00 0.00 0.00 0.00 0.00 0.00 0.00 0.00 0.00 0.00 0.00 0.00 0.00 0.00 0.00 0.00 0.00 0.00 0.00 0.00 0.00 0.00 0.00 0.00 0.00 0.00 0.00
0.13 0.14 0.09 0.01 0.00 0.01 0.02 0.01 0.00 0.00 0.00 0.00 0.00 0.00 0.00 0.00 0.00 0.00 0.00 0.00 0.00 0.00 0.00 0.00 0.00 0.00 0.00 0.00 0.00 0.00 0.00 0.00 0.00 0.00 0.00 0.00 0.00 0.00 0.00 0.00 0.00 0.00 0.00
0.05 0.06 0.08 0.05 0.01 0.04 0.02 0.03 0.02 0.00 0.00 0.00 0.00 0.00 0.00 0.00 0.00 0.00 0.00 0.00 0.00 0.00 0.00 0.00 0.00 0.00 0.00 0.00 0.00 0.00 0.00 0.00 0.00 0.00 0.00 0.00 0.00 0.00 0.00 0.00 0.00 0.00 0.00
0.04 0.03 0.04 0.02 0.00 0.01 0.00 0.00 0.00 0.00 0.00 0.00 0.00 0.00 0.00 0.00 0.00 0.00 0.00 0.00 0.00 0.00 0.00 0.00 0.00 0.00 0.00 0.00 0.00 0.00 0.00 0.00 0.00 0.00 0.00 0.00 0.00 0.00 0.00 0.00 0.00 0.00 0.00
0.06 0.04 0.08 0.05 0.05 0.01 0.00 0.00 0.00 0.00 0.00 0.00 0.00 0.00 0.00 0.00 0.00 0.00 0.00 0.00 0.00 0.00 0.00 0.00 0.00 0.00 0.00 0.00 0.00 0.00 0.00 0.00 0.00 0.00 0.00 0.00 0.00 0.00 0.00 0.00 0.00 0.00 0.00
0.09 0.05 0.04 0.04 0.03 0.02 0.00 0.00 0.00 0.00 0.00 0.00 0.00 0.00 0.00 0.00 0.00 0.00 0.00 0.00 0.00 0.00 0.00 0.00 0.00 0.00 0.00 0.00 0.00 0.00 0.00 0.00 0.00 0.00 0.00 0.00 0.00 0.00 0.00 0.00 0.00 0.00 0.00
MSLP
1010.11 1010.35 1010.59 1010.83 1011.05 1011.28 1011.43 1011.57 1011.60 1011.71 1011.99 1012.34 1012.38 1012.52 1012.80 1013.21 1013.29 1013.53 1013.65 1013.58 1013.99 1014.16 1014.32 1014.46 1014.61 1014.73 1014.92 1014.99 1015.10 1015.01 1015.21 1015.44 1015.74 1015.33 1014.97 1014.88 1014.88 1014.99 1015.06 1015.18 1015.34 1015.50 1015.57
1009.30 1009.83 1010.11 1010.20 1010.53 1010.89 1011.26 1011.41 1011.42 1011.59 1011.79 1012.12 1012.38 1012.73 1012.65 1012.98 1013.17 1013.25 1013.42 1013.06 1013.52 1013.97 1014.11 1014.28 1014.39 1014.32 1014.58 1014.70 1014.95 1015.06 1015.09 1015.14 1015.31 1015.34 1015.18 1015.09 1014.81 1014.98 1015.10 1015.17 1014.89 1014.98 1015.20
1008.74 1009.19 1009.59 1009.90 1010.26 1010.62 1010.91 1011.10 1011.27 1011.30 1011.59 1011.84 1012.01 1012.50 1012.70 1012.76 1012.82 1013.12 1013.11 1013.04 1013.26 1013.46 1013.63 1013.83 1013.97 1014.10 1014.37 1014.60 1014.80 1015.01 1015.02 1015.02 1015.09 1015.27 1015.44 1015.23 1015.06 1014.95 1014.96 1014.84 1014.77 1014.70 1015.02
1008.31 1008.74 1009.22 1009.61 1009.83 1010.16 1010.50 1010.80 1011.11 1011.16 1011.45 1011.86 1012.25 1012.58 1012.79 1013.01 1013.08 1013.14 1013.12 1013.14 1013.19 1013.36 1013.55 1013.70 1013.79 1013.99 1014.18 1014.40 1014.64 1014.94 1014.99 1015.22 1015.34 1015.30 1015.41 1015.37 1015.36 1015.26 1015.18 1015.28 1015.32 1015.33 1015.25
1007.86 1008.32 1008.75 1009.24 1009.75 1010.17 1010.47 1010.81 1011.06 1011.24 1011.62 1011.99 1012.34 1012.82 1013.17 1013.31 1013.47 1013.32 1013.20 1013.18 1013.31 1013.59 1013.82 1013.94 1014.16 1014.36 1014.52 1014.63 1014.90 1015.15 1015.09 1015.24 1015.56 1015.67 1015.67 1015.61 1015.58 1015.55 1015.63 1015.72 1015.84 1015.84 1015.78
1007.56 1008.05 1008.60 1009.20 1009.71 1010.14 1010.63 1011.13 1011.38 1011.67 1011.90 1012.22 1012.71 1012.98 1013.34 1013.70 1013.88 1013.75 1013.56 1013.44 1013.40 1013.66 1014.24 1014.51 1014.54 1014.69 1014.88 1015.03 1015.19 1015.19 1015.11 1015.14 1015.37 1015.72 1016.15 1016.18 1016.03 1015.96 1016.03 1016.21 1016.26 1016.34 1016.33
1007.29 1007.88 1008.50 1009.01 1009.63 1010.03 1010.53 1011.11 1011.54 1011.92 1012.32 1012.79 1013.14 1013.28 1013.59 1013.72 1013.63 1013.70 1013.69 1013.72 1013.75 1013.90 1014.29 1014.59 1014.79 1015.05 1015.08 1015.21 1015.33 1015.40 1015.40 1015.35 1015.26 1015.49 1015.74 1015.85 1016.01 1016.12 1016.35 1016.49 1016.54 1016.58 1016.53
1007.26 1007.85 1008.42 1008.91 1009.42 1010.15 1010.72 1011.12 1011.60 1012.02 1012.60 1013.07 1013.54 1013.77 1013.82 1014.03 1013.79 1013.53 1013.72 1013.92 1014.04 1014.24 1014.52 1014.81 1015.02 1015.28 1015.37 1015.48 1015.55 1015.64 1015.72 1015.63 1015.46 1015.38 1015.44 1015.43 1015.42 1015.60 1015.85 1016.16 1016.46 1016.53 1016.38
1007.20 1007.79 1008.39 1008.60 1009.26 1009.89 1010.37 1010.78 1011.16 1011.78 1012.69 1013.19 1013.70 1014.18 1014.37 1014.40 1014.13 1013.95 1013.78 1014.04 1014.38 1014.68 1015.00 1015.11 1015.12 1015.31 1015.48 1015.50 1015.56 1015.78 1015.81 1015.67 1015.29 1015.25 1015.25 1015.26 1015.31 1015.42 1015.55 1015.99 1016.54 1016.95 1016.94
1006.60 1007.19 1007.63 1008.18 1008.99 1009.37 1009.98 1010.61 1010.99 1011.43 1012.26 1013.00 1013.73 1014.13 1014.30 1014.42 1014.38 1014.15 1014.07 1014.28 1014.75 1015.25 1015.59 1015.75 1015.56 1015.46 1015.58 1015.65 1015.74 1015.88 1015.91 1015.95 1015.78 1015.51 1015.44 1015.42 1015.46 1015.50 1015.59 1015.74 1016.14 1016.70 1017.09
1006.12 1006.80 1007.36 1007.26 1008.07 1008.86 1009.69 1010.37 1010.87 1011.35 1012.26 1013.04 1013.61 1014.10 1014.25 1014.28 1014.40 1014.37 1014.15 1014.35 1014.82 1015.32 1015.76 1015.88 1015.69 1015.73 1015.76 1015.80 1015.83 1015.94 1015.92 1015.79 1015.82 1015.92 1015.70 1015.56 1015.62 1015.63 1015.71 1015.79 1015.94 1016.20 1016.61
1006.37 1006.67 1007.55 1008.12 1008.23 1008.89 1009.70 1010.59 1010.95 1011.58 1012.35 1013.21 1013.77 1014.20 1014.14 1014.19 1014.30 1014.69 1014.32 1014.26 1014.79 1015.28 1015.59 1015.72 1015.67 1015.76 1015.87 1015.90 1015.92 1015.90 1015.93 1015.98 1015.88 1015.91 1016.04 1016.11 1016.14 1016.03 1015.84 1015.76 1015.87 1015.81 1015.97
1006.05 1006.66 1008.18 1008.07 1008.65 1009.15 1009.85 1010.84 1011.46 1011.90 1012.46 1013.20 1013.67 1013.97 1014.08 1014.23 1014.13 1014.64 1014.26 1014.13 1014.76 1015.33 1015.48 1015.43 1015.44 1015.70 1015.92 1015.98 1015.97 1015.95 1015.93 1015.90 1015.96 1016.07 1016.17 1016.26 1016.10 1015.93 1015.90 1015.90 1015.71 1015.65 1015.60
1006.23 1007.14 1007.72 1008.11 1008.60 1009.30 1010.00 1010.87 1011.55 1012.07 1012.50 1013.11 1013.49 1013.73 1013.96 1014.26 1014.45 1014.44 1014.54 1014.60 1014.94 1015.32 1015.36 1015.63 1015.58 1015.54 1015.66 1015.82 1015.77 1015.83 1015.88 1015.96 1016.05 1016.18 1016.15 1016.19 1016.20 1016.14 1016.11 1016.16 1016.18 1016.17 1016.35
1007.17 1007.34 1007.96 1008.23 1008.24 1009.04 1010.05 1010.91 1011.48 1011.94 1012.07 1012.60 1013.13 1013.55 1013.93 1014.23 1014.19 1014.11 1014.49 1014.88 1015.07 1015.17 1015.05 1015.53 1015.59 1015.65 1015.57 1015.82 1015.84 1015.80 1015.93 1015.92 1016.10 1016.20 1016.17 1016.13 1016.26 1016.49 1016.42 1016.19 1016.35 1016.62 1016.65
1006.96 1007.14 1007.63 1008.12 1008.79 1009.57 1010.17 1011.18 1011.50 1011.68 1012.10 1012.44 1012.79 1013.19 1013.65 1013.81 1013.90 1014.27 1014.54 1014.88 1015.07 1015.22 1015.43 1015.41 1015.54 1015.62 1015.52 1015.81 1015.94 1016.08 1016.09 1016.05 1016.07 1016.22 1016.22 1016.28 1016.41 1016.52 1016.60 1016.47 1016.58 1016.72 1016.90
1005.83 1006.76 1007.59 1008.26 1008.65 1009.60 1010.59 1010.95 1011.43 1012.24 1012.22 1012.36 1012.51 1012.94 1013.33 1013.42 1013.86 1014.23 1014.60 1015.03 1015.09 1015.26 1015.36 1015.35 1015.41 1015.39 1015.27 1015.30 1015.31 1015.68 1015.96 1015.93 1015.92 1016.13 1016.28 1016.35 1016.41 1016.33 1016.48 1016.69 1016.78 1016.95 1017.04
1005.63 1005.93 1007.29 1007.75 1008.23 1008.87 1009.75 1010.64 1011.14 1011.91 1012.42 1012.50 1012.75 1013.07 1013.32 1013.74 1014.01 1014.41 1014.83 1015.12 1015.58 1015.54 1015.16 1015.10 1015.18 1015.25 1015.12 1015.19 1015.13 1015.47 1015.71 1015.86 1016.00 1015.97 1016.09 1016.19 1016.27 1016.28 1016.53 1016.68 1016.73 1016.84 1016.97
1004.09 1005.27 1006.64 1007.38 1008.14 1008.28 1008.99 1009.94 1010.71 1011.36 1011.80 1012.20 1012.80 1013.28 1013.64 1013.99 1014.41 1014.70 1014.75 1014.62 1014.83 1014.80 1014.75 1014.68 1014.71 1014.83 1014.84 1014.76 1014.78 1015.01 1015.15 1015.51 1015.57 1015.76 1015.91 1016.03 1016.12 1016.29 1016.43 1016.48 1016.56 1016.54 1016.63
1005.23 1005.80 1006.50 1007.17 1007.72 1007.98 1008.70 1009.26 1009.91 1010.64 1011.24 1011.62 1012.28 1012.77 1013.57 1014.11 1014.37 1014.30 1014.36 1014.31 1014.30 1014.15 1014.14 1014.16 1013.99 1014.07 1014.22 1014.42 1014.47 1014.66 1014.92 1015.02 1015.19 1015.51 1015.70 1015.74 1015.84 1016.05 1016.21 1016.25 1016.33 1016.34 1016.40
1005.16 1005.92 1006.15 1006.88 1007.14 1007.70 1008.19 1008.55 1009.27 1010.01 1010.50 1010.71 1010.99 1011.46 1012.08 1012.74 1013.12 1013.44 1013.63 1013.67 1013.65 1013.56 1013.45 1013.44 1013.38 1013.45 1013.49 1013.64 1013.88 1014.16 1014.33 1014.46 1014.66 1014.90 1015.20 1015.44 1015.57 1015.85 1015.74 1015.80 1016.04 1016.13 1016.20
1005.23 1005.56 1006.08 1006.26 1006.96 1007.49 1007.77 1008.11 1008.76 1009.25 1009.63 1009.89 1009.93 1010.32 1011.11 1011.84 1012.11 1012.30 1012.54 1012.62 1012.56 1012.55 1012.52 1012.64 1012.70 1012.64 1012.64 1012.87 1013.05 1013.37 1013.67 1013.95 1014.12 1014.26 1014.55 1014.75 1015.04 1015.12 1015.28 1015.42 1015.60 1015.79 1015.98
1005.39 1005.71 1006.07 1006.32 1006.76 1007.23 1007.62 1007.77 1007.97 1008.27 1008.49 1008.81 1009.08 1009.60 1010.32 1010.72 1010.89 1011.12 1011.35 1011.44 1011.57 1011.63 1011.66 1011.95 1012.08 1012.01 1012.11 1012.12 1012.20 1012.39 1012.74 1012.89 1012.90 1013.21 1013.73 1014.00 1014.33 1014.45 1014.72 1015.00 1015.17 1015.45 1015.56
1005.65 1005.94 1006.33 1006.46 1006.87 1006.95 1007.07 1007.25 1007.25 1007.34 1007.60 1007.89 1008.17 1008.51 1008.94 1009.32 1009.62 1009.84 1010.21 1010.47 1010.75 1010.86 1010.92 1010.95 1011.15 1011.26 1011.36 1011.38 1011.55 1011.65 1011.75 1011.78 1011.93 1012.27 1012.56 1013.14 1013.57 1013.90 1014.10 1014.41 1014.56 1014.78 1014.96
1006.14 1006.19 1006.18 1006.33 1006.32 1006.50 1006.64 1006.63 1006.60 1006.75 1006.96 1006.97 1007.46 1007.85 1008.09 1008.54 1008.97 1009.18 1009.38 1009.70 1009.94 1010.05 1010.05 1010.05 1010.12 1010.20 1010.36 1010.41 1010.67 1010.85 1010.83 1010.93 1011.06 1011.31 1011.72 1012.18 1012.58 1013.03 1013.48 1013.78 1014.00 1014.23 1014.42
1006.36 1006.59 1006.30 1006.25 1006.42 1006.38 1006.46 1006.61 1006.57 1006.86 1006.99 1007.06 1007.26 1007.44 1007.70 1008.06 1008.28 1008.51 1008.70 1008.84 1009.08 1009.42 1009.54 1009.34 1009.31 1009.36 1009.34 1009.45 1009.62 1009.86 1010.28 1010.52 1010.70 1010.83 1011.05 1011.68 1012.09 1012.46 1012.68 1012.83 1013.18 1013.62 1013.85
Thickness
5779 5778 5776 5775 5773 5772 5770 5769 5769 5767 5762 5758 5759 5760 5757 5751 5750 5750 5752 5758 5759 5761 5763 5763 5764 5765 5765 5767 5767 5768 5766 5764 5758 5766 5772 5775 5776 5775 5776 5775 5774 5773 5771
5784 5780 5778 5778 5777 5774 5770 5770 5771 5766 5762 5759 5760 5756 5756 5755 5756 5752 5751 5758 5760 5759 5761 5762 5762 5765 5764 5766 5766 5765 5765 5765 5765 5763 5770 5772 5775 5775 5775 5775 5776 5774 5772
5787 5784 5780 5778 5776 5774 5772 5771 5771 5770 5765 5760 5760 5757 5755 5756 5757 5756 5756 5760 5760 5761 5762 5764 5764 5764 5764 5764 5764 5764 5764 5765 5768 5766 5765 5769 5770 5773 5774 5775 5776 5774 5771
5790 5786 5781 5778 5776 5774 5773 5770 5770 5771 5766 5760 5758 5756 5753 5752 5752 5752 5754 5757 5760 5761 5762 5763 5764 5764 5764 5763 5762 5761 5762 5759 5761 5763 5763 5764 5765 5768 5769 5766 5765 5767 5765
5790 5787 5783 5779 5775 5772 5770 5768 5768 5767 5764 5760 5757 5754 5752 5751 5749 5751 5754 5756 5757 5757 5758 5759 5758 5759 5759 5758 5755 5755 5758 5756 5753 5754 5757 5759 5759 5759 5758 5759 5756 5756 5757
5789 5784 5781 5777 5772 5769 5766 5763 5761 5760 5759 5756 5752 5751 5749 5748 5748 5749 5751 5753 5755 5755 5751 5750 5752 5751 5751 5751 5751 5753 5756 5755 5753 5749 5745 5746 5749 5750 5750 5747 5746 5744 5742
5788 5783 5778 5775 5769 5767 5764 5759 5756 5754 5752 5748 5746 5746 5744 5744 5746 5747 5749 5749 5749 5750 5746 5746 5746 5746 5746 5746 5746 5746 5747 5749 5751 5748 5744 5743 5741 5741 5740 5738 5737 5737 5736
5785 5780 5776 5774 5770 5764 5758 5754 5750 5748 5744 5740 5737 5736 5738 5738 5741 5745 5744 5743 5743 5743 5741 5740 5739 5739 5739 5739 5739 5738 5739 5740 5741 5742 5741 5742 5742 5741 5739 5736 5732 5731 5731
5781 5777 5773 5772 5767 5760 5756 5752 5751 5745 5738 5734 5730 5727 5727 5728 5732 5735 5739 5737 5735 5734 5731 5732 5733 5733 5733 5734 5734 5733 5732 5734 5735 5736 5736 5736 5737 5735 5732 5727 5720 5716 5715
5783 5777 5776 5774 5765 5762 5757 5752 5748 5744 5738 5732 5725 5722 5721 5721 5721 5724 5728 5728 5726 5721 5718 5718 5724 5725 5725 5725 5725 5725 5725 5724 5724 5727 5728 5727 5726 5724 5722 5720 5716 5709 5703
5785 5776 5772 5774 5765 5758 5752 5748 5744 5739 5731 5724 5719 5715 5714 5713 5712 5712 5715 5717 5717 5712 5707 5709 5714 5715 5716 5716 5716 5715 5716 5717 5717 5715 5716 5716 5716 5713 5712 5709 5706 5702 5695
5773 5759 5755 5761 5758 5754 5746 5738 5736 5731 5725 5717 5711 5707 5707 5707 5705 5700 5704 5706 5706 5702 5699 5702 5705 5706 5706 5707 5707 5707 5706 5707 5708 5707 5704 5702 5702 5701 5700 5699 5696 5696 5693
5764 5741 5742 5753 5748 5743 5738 5727 5725 5723 5718 5711 5705 5702 5702 5699 5697 5690 5693 5696 5694 5691 5690 5694 5697 5696 5696 5696 5697 5697 5698 5698 5698 5696 5693 5691 5691 5691 5689 5688 5688 5687 5685
5753 5744 5745 5744 5741 5736 5731 5722 5716 5712 5709 5703 5699 5698 5694 5691 5687 5685 5682 5683 5683 5681 5682 5681 5684 5685 5686 5687 5688 5688 5687 5687 5686 5684 5683 5681 5679 5679 5678 5675 5673 5671 5667
5728 5734 5736 5736 5739 5734 5727 5718 5713 5707 5706 5700 5695 5692 5686 5684 5683 5681 5675 5671 5673 5673 5676 5671 5673 5674 5676 5676 5676 5675 5675 5676 5674 5672 5672 5671 5668 5664 5664 5663 5661 5657 5654
5729 5730 5729 5728 5725 5721 5717 5707 5702 5701 5697 5694 5692 5687 5682 5680 5677 5673 5669 5666 5664 5661 5662 5664 5665 5666 5668 5665 5664 5664 5663 5664 5664 5661 5659 5658 5656 5654 5650 5649 5646 5644 5641
5734 5724 5720 5717 5715 5709 5702 5701 5699 5690 5689 5686 5685 5679 5677 5675 5670 5665 5662 5658 5655 5655 5657 5658 5659 5659 5661 5660 5660 5657 5654 5652 5651 5649 5648 5646 5643 5642 5639 5635 5633 5629 5627
5716 5712 5708 5710 5708 5706 5699 5693 5690 5684 5681 5679 5675 5671 5668 5664 5661 5656 5653 5651 5647 5647 5649 5651 5651 5650 5651 5650 5651 5647 5644 5641 5638 5638 5636 5633 5630 5630 5626 5623 5621 5618 5615
5712 5701 5697 5699 5696 5698 5695 5688 5682 5678 5674 5672 5666 5661 5656 5653 5649 5646 5646 5649 5647 5645 5644 5645 5645 5644 5643 5642 5640 5638 5636 5632 5630 5627 5624 5620 5618 5616 5614 5611 5609 5609 5607
5701 5690 5689 5688 5688 5690 5685 5683 5678 5672 5668 5666 5661 5656 5647 5643 5640 5640 5639 5640 5640 5641 5641 5640 5641 5639 5637 5633 5631 5628 5625 5624 5621 5615 5612 5610 5608 5604 5602 5601 5599 5599 5598
5696 5689 5687 5682 5682 5681 5677 5677 5671 5665 5662 5662 5661 5656 5649 5645 5643 5637 5635 5634 5634 5634 5635 5634 5634 5633 5631 5628 5624 5620 5617 5614 5611 5608 5604 5600 5598 5594 5594 5592 5590 5589 5587
5688 5683 5677 5677 5673 5668 5669 5668 5663 5660 5659 5658 5659 5656 5646 5642 5639 5636 5634 5633 5632 5631 5630 5628 5626 5626 5625 5621 5618 5614 5610 5606 5602 5600 5596 5593 5589 5587 5585 5584 5582 5580 5577
5680 5677 5674 5672 5668 5663 5662 5662 5662 5660 5659 5657 5656 5652 5641 5639 5638 5635 5631 5629 5626 5624 5623 5619 5616 5615 5614 5612 5611 5608 5603 5600 5598 5594 5588 5586 5582 5579 5577 5576 5574 5570 5568
5671 5669 5664 5663 5659 5658 5657 5654 5655 5656 5655 5653 5652 5650 5643 5639 5635 5632 5628 5624 5620 5617 5615 5613 5609 5607 5606 5604 5602 5600 5597 5595 5593 5588 5585 5581 5577 5572 5570 5567 5565 5561 5559
5658 5658 5656 5654 5654 5652 5650 5649 5649 5649 5647 5647 5642 5638 5635 5632 5627 5623 5621 5616 5613 5611 5608 5606 5604 5602 5599 5597 5594 5591 5590 5588 5586 5583 5579 5573 5569 5565 5560 5557 5554 5552 5550
5646 5644 5647 5647 5644 5643 5642 5640 5638 5635 5633 5632 5629 5626 5623 5619 5617 5615 5613 5610 5606 5602 5599 5599 5596 5594 5593 5591 5587 5584 5581 5578 5574 5572 5569 5564 5559 5555 5553 5552 5548 5544 5541